Location: DARK SKY Beskydy - Park tmavé oblohy, www.darkskybeskydy.cz
(49.4926°N, 18.5016°E)
Time: 10:12:31
(UTC+02:00)

BlueWalker 3 - Pass Details

Date: 23 June 2024
Orbit: 480 x 491 km, 53.2° (Epoch: 23 July)

Event Time Altitude Azimuth Distance (km) Brightness Sun altitude
Rises 21:39:23 0° 250° (WSW) 2,536 5.8 -5.9°
Reaches altitude 10° 21:41:33 10° 252° (WSW) 1,657 4.9 -6.1°
Maximum altitude 21:45:18 77° 339° (NNW) 497 2.1 -6.5°
Drops below altitude 10° 21:49:02 10° 66° (ENE) 1,658 4.4 -6.9°
Sets 21:51:12 0° 68° (ENE) 2,538 5.3 -7.1°
